Flag for Canada Weather past 2 weeks in Richmond Hill, Ontario, Canada

Now
41 °F

Clear.


Feels Like: 41 °F
Forecast: 40 / 63 °F
Wind: No wind

Location: Toronto Buttonville

Current Time: Apr 18, 2015 at 5:39:30 AM

Latest Report: Apr 18, 2015 at 5:00 AM


Visibility: 15 mi

Pressure: 29.95 "Hg

Humidity: 87%

Dew point: 37 °F

Location of Richmond HillLocation

Historic Weather in Richmond Hill — Graph

°F

Richmond Hill temperature yesterday

Maximum temperature yesterday: 70 °F (at 3:00 PM)
Minimum temperature yesterday: 48 °F (at 2:00 AM)
Average temperature yesterday: 57 °F

Past Weeks' High & Low Weather Summary

 TemperatureHumidityPressure
High73 °F (Apr 13, 4:00 PM)100% (Apr 3, 4:00 AM)30.42 "Hg (Apr 3, 4:00 AM)
Low27 °F (Apr 5, 4:00 AM)20% (Apr 14, 4:00 PM)29.41 "Hg (Apr 10, 11:00 AM)
Average44 °F65%30.10 "Hg
* Reported Apr 3 4:00 AM — Apr 18 4:00 AM, Richmond Hill, Weather by CustomWeather, © 2015

Note: Actual official high and low records may vary slightly from our data, if they occured in-between our weather recording intervals... More about our weather records

Advertising

Richmond Hill weather history for previous 24 hours

 ConditionsComfort  
Time TempWeatherWind HumidityBarometerVisibility
4:00 AM
Sat, Apr 18
43 °FClear.No wind87%29.96 "Hg15 mi
3:00 AM45 °FClear.No wind81%29.97 "Hg15 mi
2:00 AM46 °FClear.No wind76%29.99 "Hg15 mi
1:00 AM46 °FClear.No wind76%29.99 "Hg15 mi
12:00 AM48 °FClear.No wind71%30.00 "Hg15 mi
11:00 PM
Fri, Apr 17
50 °FClear.3 mph71%30.01 "Hg15 mi
10:00 PM54 °FClear.3 mph58%30.01 "Hg15 mi
9:00 PM59 °FSunny.5 mph48%30.00 "Hg15 mi
8:00 PM63 °FPassing clouds.8 mph42%29.98 "Hg15 mi
7:00 PM64 °FPassing clouds.14 mph40%29.96 "Hg15 mi
6:00 PM68 °FPassing clouds.14 mph35%29.95 "Hg15 mi
5:00 PM70 °FPassing clouds.9 mph38%29.94 "Hg15 mi
4:00 PM70 °FPassing clouds.6 mph38%29.95 "Hg15 mi
3:00 PM70 °FPassing clouds.12 mph40%29.97 "Hg15 mi
2:00 PM68 °FPassing clouds.7 mph40%29.99 "Hg15 mi
1:00 PM64 °FPassing clouds.6 mph52%30.00 "Hg11 mi
12:00 PM61 °FPassing clouds.3 mph63%30.01 "Hg11 mi
11:00 AM59 °FBroken clouds.6 mph72%30.01 "Hg11 mi
10:00 AM55 °FScattered clouds.3 mph82%30.02 "Hg7 mi
9:00 AM54 °FFog.2 mph88%30.03 "Hg4 mi
8:00 AM50 °FFog.2 mph100%30.01 "Hg3 mi
7:53 AMN/AFog.2 mphN/AN/A3 mi
7:00 AM48 °FFog.No wind100%30.00 "Hg2 mi
6:00 AM50 °FFog.No wind94%30.01 "Hg3 mi
5:00 AM50 °FFog.No wind94%30.00 "Hg3 mi
Weather by CustomWeather, © 2015

See weather overviewHow to use our weather pages